Year,Month,Day,Hour,Minute,Value (Times are PST for temperature in C)
2008,06,28,00,00,15.80
2008,06,28,00,01,15.80
2008,06,28,00,02,15.80
2008,06,28,00,03,15.80
2008,06,28,00,04,15.80
2008,06,28,00,05,15.70
2008,06,28,00,06,15.70
2008,06,28,00,07,15.70
2008,06,28,00,08,15.70
2008,06,28,00,09,15.70
2008,06,28,00,10,15.70
2008,06,28,00,11,15.70
2008,06,28,00,12,15.70
2008,06,28,00,13,15.70
2008,06,28,00,14,15.70
2008,06,28,00,15,15.70
2008,06,28,00,16,15.70
2008,06,28,00,17,15.70
2008,06,28,00,18,15.70
2008,06,28,00,19,15.70
2008,06,28,00,20,15.60
2008,06,28,00,21,15.60
2008,06,28,00,22,15.60
2008,06,28,00,23,15.60
2008,06,28,00,24,15.60
2008,06,28,00,25,15.60
2008,06,28,00,26,15.60
2008,06,28,00,27,15.60
2008,06,28,00,28,15.50
2008,06,28,00,29,15.50
2008,06,28,00,30,15.50
2008,06,28,00,31,15.50
2008,06,28,00,32,15.50
2008,06,28,00,33,15.50
2008,06,28,00,34,15.50
2008,06,28,00,35,15.50
2008,06,28,00,36,15.50
2008,06,28,00,37,15.40
2008,06,28,00,38,15.40
2008,06,28,00,39,15.40
2008,06,28,00,40,15.40
2008,06,28,00,41,15.40
2008,06,28,00,42,15.40
2008,06,28,00,43,15.40
2008,06,28,00,44,15.40
2008,06,28,00,45,15.40
2008,06,28,00,46,15.40
2008,06,28,00,47,15.40
2008,06,28,00,48,15.40
2008,06,28,00,49,15.30
2008,06,28,00,50,15.30
2008,06,28,00,51,15.30
2008,06,28,00,52,15.30
2008,06,28,00,53,15.30
2008,06,28,00,54,15.30
2008,06,28,00,55,15.30
2008,06,28,00,56,15.30
2008,06,28,00,57,15.30
2008,06,28,00,58,15.30
2008,06,28,00,59,15.30
2008,06,28,01,00,15.20
2008,06,28,01,01,15.20
2008,06,28,01,02,15.20
2008,06,28,01,03,15.20
2008,06,28,01,04,15.20
2008,06,28,01,05,15.20
2008,06,28,01,06,15.20
2008,06,28,01,07,15.20
2008,06,28,01,08,15.20
2008,06,28,01,09,15.20
2008,06,28,01,10,15.10
2008,06,28,01,11,15.10
2008,06,28,01,12,15.10
2008,06,28,01,13,15.10
2008,06,28,01,14,15.10
2008,06,28,01,15,15.10
2008,06,28,01,16,15.10
2008,06,28,01,17,15.10
2008,06,28,01,18,15.10
2008,06,28,01,19,15.10
2008,06,28,01,20,15.10
2008,06,28,01,21,15.10
2008,06,28,01,22,15.00
2008,06,28,01,23,15.00
2008,06,28,01,24,15.00
2008,06,28,01,25,15.00
2008,06,28,01,26,15.00
2008,06,28,01,27,15.00
2008,06,28,01,28,15.00
2008,06,28,01,29,15.00
2008,06,28,01,30,15.00
2008,06,28,01,31,15.00
2008,06,28,01,32,15.00
2008,06,28,01,33,15.00
2008,06,28,01,34,15.00
2008,06,28,01,35,15.00
2008,06,28,01,36,14.90
2008,06,28,01,37,14.90
2008,06,28,01,38,14.90
2008,06,28,01,39,14.90
2008,06,28,01,40,14.90
2008,06,28,01,41,14.90
2008,06,28,01,42,14.90
2008,06,28,01,43,14.90
2008,06,28,01,44,14.80
2008,06,28,01,45,14.80
2008,06,28,01,46,14.80
2008,06,28,01,47,14.80
2008,06,28,01,48,14.80
2008,06,28,01,49,14.80
2008,06,28,01,50,14.80
2008,06,28,01,51,14.80
2008,06,28,01,52,14.80
2008,06,28,01,53,14.80
2008,06,28,01,54,14.80
2008,06,28,01,55,14.80
2008,06,28,01,56,14.80
2008,06,28,01,57,14.80
2008,06,28,01,58,14.80
2008,06,28,01,59,14.80
2008,06,28,02,00,14.80
2008,06,28,02,01,14.80
2008,06,28,02,02,14.80
2008,06,28,02,03,14.80
2008,06,28,02,04,14.80
2008,06,28,02,05,14.80
2008,06,28,02,06,14.80
2008,06,28,02,07,14.80
2008,06,28,02,08,14.80
2008,06,28,02,09,14.80
2008,06,28,02,10,14.80
2008,06,28,02,11,14.80
2008,06,28,02,12,14.80
2008,06,28,02,13,14.80
2008,06,28,02,14,14.80
2008,06,28,02,15,14.80
2008,06,28,02,16,14.80
2008,06,28,02,17,14.80
2008,06,28,02,18,14.80
2008,06,28,02,19,14.80
2008,06,28,02,20,14.80
2008,06,28,02,21,14.80
2008,06,28,02,22,14.80
2008,06,28,02,23,14.80
2008,06,28,02,24,14.80
2008,06,28,02,25,14.80
2008,06,28,02,26,14.80
2008,06,28,02,27,14.80
2008,06,28,02,28,14.80
2008,06,28,02,29,14.80
2008,06,28,02,30,14.80
2008,06,28,02,31,14.80
2008,06,28,02,32,14.70
2008,06,28,02,33,14.70
2008,06,28,02,34,14.70
2008,06,28,02,35,14.60
2008,06,28,02,36,14.60
2008,06,28,02,37,14.60
2008,06,28,02,38,14.60
2008,06,28,02,39,14.60
2008,06,28,02,40,14.60
2008,06,28,02,41,14.50
2008,06,28,02,42,14.50
2008,06,28,02,43,14.50
2008,06,28,02,44,14.50
2008,06,28,02,45,14.50
2008,06,28,02,46,14.50
2008,06,28,02,47,14.50
2008,06,28,02,48,14.40
2008,06,28,02,49,14.40
2008,06,28,02,50,14.40
2008,06,28,02,51,14.40
2008,06,28,02,52,14.40
2008,06,28,02,53,14.40
2008,06,28,02,54,14.40
2008,06,28,02,55,14.40
2008,06,28,02,56,14.40
2008,06,28,02,57,14.40
2008,06,28,02,58,14.40
2008,06,28,02,59,14.30
2008,06,28,03,00,14.30
2008,06,28,03,01,14.30
2008,06,28,03,02,14.30
2008,06,28,03,03,14.30
2008,06,28,03,04,14.30
2008,06,28,03,05,14.20
2008,06,28,03,06,14.20
2008,06,28,03,07,14.20
2008,06,28,03,08,14.20
2008,06,28,03,09,14.20
2008,06,28,03,10,14.20
2008,06,28,03,11,14.20
2008,06,28,03,12,14.20
2008,06,28,03,13,14.20
2008,06,28,03,14,14.20
2008,06,28,03,15,14.20
2008,06,28,03,16,14.10
2008,06,28,03,17,14.10
2008,06,28,03,18,14.10
2008,06,28,03,19,14.10
2008,06,28,03,20,14.10
2008,06,28,03,21,14.10
2008,06,28,03,22,14.10
2008,06,28,03,23,14.10
2008,06,28,03,24,14.10
2008,06,28,03,25,14.00
2008,06,28,03,26,14.00
2008,06,28,03,27,14.00
2008,06,28,03,28,14.00
2008,06,28,03,29,14.00
2008,06,28,03,30,14.00
2008,06,28,03,31,14.00
2008,06,28,03,32,14.00
2008,06,28,03,33,14.00
2008,06,28,03,34,14.00
2008,06,28,03,35,14.00
2008,06,28,03,36,14.00
2008,06,28,03,37,13.90
2008,06,28,03,38,13.90
2008,06,28,03,39,13.90
2008,06,28,03,40,13.90
2008,06,28,03,41,13.90
2008,06,28,03,42,13.90
2008,06,28,03,43,13.90
2008,06,28,03,44,13.90
2008,06,28,03,45,13.90
2008,06,28,03,46,13.90
2008,06,28,03,47,13.90
2008,06,28,03,48,13.90
2008,06,28,03,49,13.80
2008,06,28,03,50,13.80
2008,06,28,03,51,13.80
2008,06,28,03,52,13.80
2008,06,28,03,53,13.80
2008,06,28,03,54,13.80
2008,06,28,03,55,13.80
2008,06,28,03,56,13.80
2008,06,28,03,57,13.80
2008,06,28,03,58,13.80
2008,06,28,03,59,13.80
2008,06,28,04,00,13.80
2008,06,28,04,01,13.80
2008,06,28,04,02,13.70
2008,06,28,04,03,13.80
2008,06,28,04,04,13.80
2008,06,28,04,05,13.80
2008,06,28,04,06,13.80
2008,06,28,04,07,13.70
2008,06,28,04,08,13.70
2008,06,28,04,09,13.70
2008,06,28,04,10,13.70
2008,06,28,04,11,13.70
2008,06,28,04,12,13.70
2008,06,28,04,13,13.70
2008,06,28,04,14,13.70
2008,06,28,04,15,13.70
2008,06,28,04,16,13.70
2008,06,28,04,17,13.70
2008,06,28,04,18,13.70
2008,06,28,04,19,13.70
2008,06,28,04,20,13.70
2008,06,28,04,21,13.70
2008,06,28,04,22,13.70
2008,06,28,04,23,13.70
2008,06,28,04,24,13.70
2008,06,28,04,25,13.70
2008,06,28,04,26,13.70
2008,06,28,04,27,13.70
2008,06,28,04,28,13.70
2008,06,28,04,29,13.70
2008,06,28,04,30,13.70
2008,06,28,04,31,13.70
2008,06,28,04,32,13.70
2008,06,28,04,33,13.70
2008,06,28,04,34,13.70
2008,06,28,04,35,13.70
2008,06,28,04,36,13.70
2008,06,28,04,37,13.70
2008,06,28,04,38,13.70
2008,06,28,04,39,13.70
2008,06,28,04,40,13.70
2008,06,28,04,41,13.70
2008,06,28,04,42,13.70
2008,06,28,04,43,13.70
2008,06,28,04,44,13.70
2008,06,28,04,45,13.70
2008,06,28,04,46,13.70
2008,06,28,04,47,13.70
2008,06,28,04,48,13.70
2008,06,28,04,49,13.70
2008,06,28,04,50,13.70
2008,06,28,04,51,13.70
2008,06,28,04,52,13.60
2008,06,28,04,53,13.60
2008,06,28,04,54,13.60
2008,06,28,04,55,13.60
2008,06,28,04,56,13.60
2008,06,28,04,57,13.50
2008,06,28,04,58,13.50
2008,06,28,04,59,13.50
2008,06,28,05,00,13.50
2008,06,28,05,01,13.50
2008,06,28,05,02,13.40
2008,06,28,05,03,13.40
2008,06,28,05,04,13.40
2008,06,28,05,05,13.40
2008,06,28,05,06,13.40
2008,06,28,05,07,13.40
2008,06,28,05,08,13.40
2008,06,28,05,09,13.40
2008,06,28,05,10,13.40
2008,06,28,05,11,13.40
2008,06,28,05,12,13.30
2008,06,28,05,13,13.30
2008,06,28,05,14,13.30
2008,06,28,05,15,13.30
2008,06,28,05,16,13.30
2008,06,28,05,17,13.30
2008,06,28,05,18,13.30
2008,06,28,05,19,13.30
2008,06,28,05,20,13.30
2008,06,28,05,21,13.30
2008,06,28,05,22,13.30
2008,06,28,05,23,13.30
2008,06,28,05,24,13.30
2008,06,28,05,25,13.30
2008,06,28,05,26,13.30
2008,06,28,05,27,13.30
2008,06,28,05,28,13.30
2008,06,28,05,29,13.30
2008,06,28,05,30,13.30
2008,06,28,05,31,13.30
2008,06,28,05,32,13.30
2008,06,28,05,33,13.30
2008,06,28,05,34,13.30
2008,06,28,05,35,13.30
2008,06,28,05,36,13.30
2008,06,28,05,37,13.30
2008,06,28,05,38,13.30
2008,06,28,05,39,13.30
2008,06,28,05,40,13.30
2008,06,28,05,41,13.30
2008,06,28,05,42,13.30
2008,06,28,05,43,13.30
2008,06,28,05,44,13.30
2008,06,28,05,45,13.30
2008,06,28,05,46,13.30
2008,06,28,05,47,13.40
2008,06,28,05,48,13.40
2008,06,28,05,49,13.40
2008,06,28,05,50,13.40
2008,06,28,05,51,13.50
2008,06,28,05,52,13.50
2008,06,28,05,53,13.60
2008,06,28,05,54,13.60
2008,06,28,05,55,13.70
2008,06,28,05,56,13.70
2008,06,28,05,57,13.70
2008,06,28,05,58,13.70
2008,06,28,05,59,13.80
2008,06,28,06,00,13.90
2008,06,28,06,01,13.90
2008,06,28,06,02,14.00
2008,06,28,06,03,14.00
2008,06,28,06,04,14.10
2008,06,28,06,05,14.20
2008,06,28,06,06,14.20
2008,06,28,06,07,14.30
2008,06,28,06,08,14.40
2008,06,28,06,09,14.50
2008,06,28,06,10,14.50
2008,06,28,06,11,14.60
2008,06,28,06,12,14.60
2008,06,28,06,13,14.70
2008,06,28,06,14,14.80
2008,06,28,06,15,14.80
2008,06,28,06,16,14.80
2008,06,28,06,17,14.90
2008,06,28,06,18,15.00
2008,06,28,06,19,15.00
2008,06,28,06,20,15.10
2008,06,28,06,21,15.10
2008,06,28,06,22,15.10
2008,06,28,06,23,15.20
2008,06,28,06,24,15.20
2008,06,28,06,25,15.30
2008,06,28,06,26,15.30
2008,06,28,06,27,15.40
2008,06,28,06,28,15.40
2008,06,28,06,29,15.50
2008,06,28,06,30,15.60
2008,06,28,06,31,15.70
2008,06,28,06,32,15.70
2008,06,28,06,33,15.80
2008,06,28,06,34,15.80
2008,06,28,06,35,15.90
2008,06,28,06,36,16.10
2008,06,28,06,37,16.10
2008,06,28,06,38,16.20
2008,06,28,06,39,16.30
2008,06,28,06,40,16.40
2008,06,28,06,41,16.50
2008,06,28,06,42,16.70
2008,06,28,06,43,16.80
2008,06,28,06,44,17.00
2008,06,28,06,45,17.20
2008,06,28,06,46,17.40
2008,06,28,06,47,17.60
2008,06,28,06,48,17.80
2008,06,28,06,49,17.90
2008,06,28,06,50,18.10
2008,06,28,06,51,18.20
2008,06,28,06,52,18.30
2008,06,28,06,53,18.40
2008,06,28,06,54,18.50
2008,06,28,06,55,18.50
2008,06,28,06,56,18.60
2008,06,28,06,57,18.60
2008,06,28,06,58,18.60
2008,06,28,06,59,18.70
2008,06,28,07,00,18.70
2008,06,28,07,01,18.80
2008,06,28,07,02,18.80
2008,06,28,07,03,18.80
2008,06,28,07,04,18.80
2008,06,28,07,05,18.90
2008,06,28,07,06,18.90
2008,06,28,07,07,18.90
2008,06,28,07,08,18.90
2008,06,28,07,09,18.90
2008,06,28,07,10,18.90
2008,06,28,07,11,18.90
2008,06,28,07,12,18.90
2008,06,28,07,13,18.90
2008,06,28,07,14,18.90
2008,06,28,07,15,18.90
2008,06,28,07,16,18.90
2008,06,28,07,17,18.90
2008,06,28,07,18,18.90
2008,06,28,07,19,18.90
2008,06,28,07,20,18.90
2008,06,28,07,21,18.90
2008,06,28,07,22,18.90
2008,06,28,07,23,18.90
2008,06,28,07,24,18.90
2008,06,28,07,25,18.90
2008,06,28,07,26,18.90
2008,06,28,07,27,18.90
2008,06,28,07,28,18.90
2008,06,28,07,29,18.90
2008,06,28,07,30,18.90
2008,06,28,07,31,18.90
2008,06,28,07,32,18.90
2008,06,28,07,33,18.90
2008,06,28,07,34,18.90
2008,06,28,07,35,19.10
2008,06,28,07,36,19.10
2008,06,28,07,37,19.10
2008,06,28,07,38,19.10
2008,06,28,07,39,19.10
2008,06,28,07,40,19.10
2008,06,28,07,41,19.10
2008,06,28,07,42,19.10
2008,06,28,07,43,19.10
2008,06,28,07,44,19.10
2008,06,28,07,45,19.10
2008,06,28,07,46,19.10
2008,06,28,07,47,19.10
2008,06,28,07,48,19.10
2008,06,28,07,49,19.10
2008,06,28,07,50,19.10
2008,06,28,07,51,19.10
2008,06,28,07,52,19.10
2008,06,28,07,53,19.10
2008,06,28,07,54,19.20
2008,06,28,07,55,19.20
2008,06,28,07,56,19.20
2008,06,28,07,57,19.20
2008,06,28,07,58,19.10
2008,06,28,07,59,19.20
2008,06,28,08,00,19.20
2008,06,28,08,01,19.20
2008,06,28,08,02,19.30
2008,06,28,08,03,19.30
2008,06,28,08,04,19.30
2008,06,28,08,05,19.30
2008,06,28,08,06,19.30
2008,06,28,08,07,19.40
2008,06,28,08,08,19.40
2008,06,28,08,09,19.40
2008,06,28,08,10,19.50
2008,06,28,08,11,19.40
2008,06,28,08,12,19.40
2008,06,28,08,13,19.40
2008,06,28,08,14,19.40
2008,06,28,08,15,19.40
2008,06,28,08,16,19.50
2008,06,28,08,17,19.60
2008,06,28,08,18,19.60
2008,06,28,08,19,19.70
2008,06,28,08,20,19.70
2008,06,28,08,21,19.70
2008,06,28,08,22,19.80
2008,06,28,08,23,19.70
2008,06,28,08,24,19.70
2008,06,28,08,25,19.70
2008,06,28,08,26,19.70
2008,06,28,08,27,19.70
2008,06,28,08,28,19.70
2008,06,28,08,29,19.60
2008,06,28,08,30,19.60
2008,06,28,08,31,19.60
2008,06,28,08,32,19.70
2008,06,28,08,33,19.70
2008,06,28,08,34,19.70
2008,06,28,08,35,19.80
2008,06,28,08,36,19.80
2008,06,28,08,37,19.80
2008,06,28,08,38,19.80
2008,06,28,08,39,19.70
2008,06,28,08,40,19.60
2008,06,28,08,41,19.60
2008,06,28,08,42,19.70
2008,06,28,08,43,19.70
2008,06,28,08,44,19.70
2008,06,28,08,45,19.70
2008,06,28,08,46,19.70
2008,06,28,08,47,19.80
2008,06,28,08,48,19.80
2008,06,28,08,49,19.80
2008,06,28,08,50,19.80
2008,06,28,08,51,19.90
2008,06,28,08,52,19.90
2008,06,28,08,53,19.90
2008,06,28,08,54,19.90
2008,06,28,08,55,19.90
2008,06,28,08,56,20.00
2008,06,28,08,57,20.10
2008,06,28,08,58,20.10
2008,06,28,08,59,20.10
2008,06,28,09,00,20.20
2008,06,28,09,01,20.30
2008,06,28,09,02,20.40
2008,06,28,09,03,20.50
2008,06,28,09,04,20.50
2008,06,28,09,05,20.50
2008,06,28,09,06,20.50
2008,06,28,09,07,20.50
2008,06,28,09,08,20.40
2008,06,28,09,09,20.40
2008,06,28,09,10,20.40
2008,06,28,09,11,20.40
2008,06,28,09,12,20.30
2008,06,28,09,13,20.30
2008,06,28,09,14,20.30
2008,06,28,09,15,20.30
2008,06,28,09,16,20.30
2008,06,28,09,17,20.40
2008,06,28,09,18,20.50
2008,06,28,09,19,20.50
2008,06,28,09,20,20.50
2008,06,28,09,21,20.50
2008,06,28,09,22,20.60
2008,06,28,09,23,20.60
2008,06,28,09,24,20.60
2008,06,28,09,25,20.60
2008,06,28,09,26,20.60
2008,06,28,09,27,20.70
2008,06,28,09,28,20.70
2008,06,28,09,29,20.80
2008,06,28,09,30,20.80
2008,06,28,09,31,20.90
2008,06,28,09,32,21.00
2008,06,28,09,33,21.00
2008,06,28,09,34,21.00
2008,06,28,09,35,21.00
2008,06,28,09,36,21.10
2008,06,28,09,37,21.00
2008,06,28,09,38,21.00
2008,06,28,09,39,21.00
2008,06,28,09,40,21.00
2008,06,28,09,41,21.10
2008,06,28,09,42,21.10
2008,06,28,09,43,21.10
2008,06,28,09,44,21.20
2008,06,28,09,45,21.20
2008,06,28,09,46,21.30
2008,06,28,09,47,21.40
2008,06,28,09,48,21.40
2008,06,28,09,49,21.60
2008,06,28,09,50,21.60
2008,06,28,09,51,21.70
2008,06,28,09,52,21.70
2008,06,28,09,53,21.70
2008,06,28,09,54,21.60
2008,06,28,09,55,21.60
2008,06,28,09,56,21.60
2008,06,28,09,57,21.60
2008,06,28,09,58,21.60
2008,06,28,09,59,21.60
2008,06,28,10,00,21.60
2008,06,28,10,01,21.60
2008,06,28,10,02,21.40
2008,06,28,10,03,21.40
2008,06,28,10,04,21.40
2008,06,28,10,05,21.40
2008,06,28,10,06,21.60
2008,06,28,10,07,21.60
2008,06,28,10,08,21.60
2008,06,28,10,09,21.70
2008,06,28,10,10,21.80
2008,06,28,10,11,21.80
2008,06,28,10,12,21.80
2008,06,28,10,13,21.80
2008,06,28,10,14,21.70
2008,06,28,10,15,21.70
2008,06,28,10,16,21.70
2008,06,28,10,17,21.70
2008,06,28,10,18,21.70
2008,06,28,10,19,21.70
2008,06,28,10,20,21.60
2008,06,28,10,21,21.70
2008,06,28,10,22,21.80
2008,06,28,10,23,21.80
2008,06,28,10,24,21.80
2008,06,28,10,25,21.80
2008,06,28,10,26,21.80
2008,06,28,10,27,21.70
2008,06,28,10,28,21.70
2008,06,28,10,29,21.70
2008,06,28,10,30,21.80
2008,06,28,10,31,21.80
2008,06,28,10,32,21.90
2008,06,28,10,33,22.00
2008,06,28,10,34,22.00
2008,06,28,10,35,22.10
2008,06,28,10,36,22.10
2008,06,28,10,37,22.10
2008,06,28,10,38,22.20
2008,06,28,10,39,22.30
2008,06,28,10,40,22.30
2008,06,28,10,41,22.30
2008,06,28,10,42,22.30
2008,06,28,10,43,22.20
2008,06,28,10,44,22.10
2008,06,28,10,45,22.10
2008,06,28,10,46,22.10
2008,06,28,10,47,22.10
2008,06,28,10,48,22.10
2008,06,28,10,49,22.10
2008,06,28,10,50,22.10
2008,06,28,10,51,22.00
2008,06,28,10,52,22.00
2008,06,28,10,53,22.10
2008,06,28,10,54,22.10
2008,06,28,10,55,22.20
2008,06,28,10,56,22.20
2008,06,28,10,57,22.30
2008,06,28,10,58,22.40
2008,06,28,10,59,22.40
2008,06,28,11,00,22.40
2008,06,28,11,01,22.40
2008,06,28,11,02,22.30
2008,06,28,11,03,22.30
2008,06,28,11,04,22.30
2008,06,28,11,05,22.40
2008,06,28,11,06,22.40
2008,06,28,11,07,22.40
2008,06,28,11,08,22.30
2008,06,28,11,09,22.30
2008,06,28,11,10,22.30
2008,06,28,11,11,22.30
2008,06,28,11,12,22.30
2008,06,28,11,13,22.40
2008,06,28,11,14,22.50
2008,06,28,11,15,22.50
2008,06,28,11,16,22.40
2008,06,28,11,17,22.40
2008,06,28,11,18,22.40
2008,06,28,11,19,22.40
2008,06,28,11,20,22.40
2008,06,28,11,21,22.50
2008,06,28,11,22,22.50
2008,06,28,11,23,22.60
2008,06,28,11,24,22.60
2008,06,28,11,25,22.60
2008,06,28,11,26,22.70
2008,06,28,11,27,22.70
2008,06,28,11,28,22.70
2008,06,28,11,29,22.80
2008,06,28,11,30,22.90
2008,06,28,11,31,23.00
2008,06,28,11,32,23.20
2008,06,28,11,33,23.30
2008,06,28,11,34,23.40
2008,06,28,11,35,23.40
2008,06,28,11,36,23.40
2008,06,28,11,37,23.40
2008,06,28,11,38,23.30
2008,06,28,11,39,23.30
2008,06,28,11,40,23.30
2008,06,28,11,41,23.30
2008,06,28,11,42,23.30
2008,06,28,11,43,23.30
2008,06,28,11,44,23.30
2008,06,28,11,45,23.20
2008,06,28,11,46,23.30
2008,06,28,11,47,23.30
2008,06,28,11,48,23.30
2008,06,28,11,49,23.30
2008,06,28,11,50,23.30
2008,06,28,11,51,23.30
2008,06,28,11,52,23.50
2008,06,28,11,53,23.60
2008,06,28,11,54,23.70
2008,06,28,11,55,23.70
2008,06,28,11,56,23.80
2008,06,28,11,57,23.70
2008,06,28,11,58,23.70
2008,06,28,11,59,23.70
2008,06,28,12,00,23.70
2008,06,28,12,01,23.70
2008,06,28,12,02,23.70
2008,06,28,12,03,23.70
2008,06,28,12,04,23.70
2008,06,28,12,05,23.70
2008,06,28,12,06,23.60
2008,06,28,12,07,23.50
2008,06,28,12,08,23.40
2008,06,28,12,09,23.40
2008,06,28,12,10,23.40
2008,06,28,12,11,23.60
2008,06,28,12,12,23.70
2008,06,28,12,13,23.80
2008,06,28,12,14,24.00
2008,06,28,12,15,24.10
2008,06,28,12,16,24.20
2008,06,28,12,17,24.20
2008,06,28,12,18,24.20
2008,06,28,12,19,24.10
2008,06,28,12,20,24.10
2008,06,28,12,21,24.10
2008,06,28,12,22,24.20
2008,06,28,12,23,24.10
2008,06,28,12,24,24.10
2008,06,28,12,25,24.10
2008,06,28,12,26,24.10
2008,06,28,12,27,24.10
2008,06,28,12,28,24.10
2008,06,28,12,29,24.10
2008,06,28,12,30,24.00
2008,06,28,12,31,23.90
2008,06,28,12,32,23.90
2008,06,28,12,33,24.10
2008,06,28,12,34,24.10
2008,06,28,12,35,24.10
2008,06,28,12,36,24.10
2008,06,28,12,37,24.10
2008,06,28,12,38,24.20
2008,06,28,12,39,24.20
2008,06,28,12,40,24.20
2008,06,28,12,41,24.30
2008,06,28,12,42,24.40
2008,06,28,12,43,24.40
2008,06,28,12,44,24.40
2008,06,28,12,45,24.40
2008,06,28,12,46,24.40
2008,06,28,12,47,24.40
2008,06,28,12,48,24.40
2008,06,28,12,49,24.40
2008,06,28,12,50,24.40
2008,06,28,12,51,24.40
2008,06,28,12,52,24.40
2008,06,28,12,53,24.30
2008,06,28,12,54,24.30
2008,06,28,12,55,24.40
2008,06,28,12,56,24.40
2008,06,28,12,57,24.30
2008,06,28,12,58,24.10
2008,06,28,12,59,24.10
2008,06,28,13,00,24.10
2008,06,28,13,01,24.10
2008,06,28,13,02,24.10
2008,06,28,13,03,24.20
2008,06,28,13,04,24.20
2008,06,28,13,05,24.20
2008,06,28,13,06,24.30
2008,06,28,13,07,24.40
2008,06,28,13,08,24.40
2008,06,28,13,09,24.50
2008,06,28,13,10,24.50
2008,06,28,13,11,24.40
2008,06,28,13,12,24.50
2008,06,28,13,13,24.50
2008,06,28,13,14,24.40
2008,06,28,13,15,24.40
2008,06,28,13,16,24.50
2008,06,28,13,17,24.60
2008,06,28,13,18,24.50
2008,06,28,13,19,24.40
2008,06,28,13,20,24.40
2008,06,28,13,21,24.50
2008,06,28,13,22,24.60
2008,06,28,13,23,24.60
2008,06,28,13,24,24.70
2008,06,28,13,25,24.70
2008,06,28,13,26,24.60
2008,06,28,13,27,24.70
2008,06,28,13,28,24.80
2008,06,28,13,29,24.80
2008,06,28,13,30,24.90
2008,06,28,13,31,24.90
2008,06,28,13,32,24.90
2008,06,28,13,33,24.90
2008,06,28,13,34,25.00
2008,06,28,13,35,25.00
2008,06,28,13,36,25.10
2008,06,28,13,37,25.20
2008,06,28,13,38,25.30
2008,06,28,13,39,25.40
2008,06,28,13,40,25.40
2008,06,28,13,41,25.30
2008,06,28,13,42,25.30
2008,06,28,13,43,25.10
2008,06,28,13,44,25.10
2008,06,28,13,45,25.00
2008,06,28,13,46,25.00
2008,06,28,13,47,24.90
2008,06,28,13,48,24.90
2008,06,28,13,49,24.90
2008,06,28,13,50,25.00
2008,06,28,13,51,25.00
2008,06,28,13,52,25.10
2008,06,28,13,53,25.20
2008,06,28,13,54,25.10
2008,06,28,13,55,25.00
2008,06,28,13,56,24.90
2008,06,28,13,57,24.90
2008,06,28,13,58,25.00
2008,06,28,13,59,25.00
2008,06,28,14,00,24.90
2008,06,28,14,01,24.90
2008,06,28,14,02,24.90
2008,06,28,14,03,24.90
2008,06,28,14,04,25.00
2008,06,28,14,05,25.20
2008,06,28,14,06,25.30
2008,06,28,14,07,25.40
2008,06,28,14,08,25.50
2008,06,28,14,09,25.60
2008,06,28,14,10,25.70
2008,06,28,14,11,25.70
2008,06,28,14,12,25.60
2008,06,28,14,13,25.60
2008,06,28,14,14,25.50
2008,06,28,14,15,25.50
2008,06,28,14,16,25.60
2008,06,28,14,17,25.60
2008,06,28,14,18,25.60
2008,06,28,14,19,25.60
2008,06,28,14,20,25.60
2008,06,28,14,21,25.70
2008,06,28,14,22,25.90
2008,06,28,14,23,25.90
2008,06,28,14,24,26.00
2008,06,28,14,25,26.00
2008,06,28,14,26,25.90
2008,06,28,14,27,25.80
2008,06,28,14,28,25.90
2008,06,28,14,29,25.90
2008,06,28,14,30,25.90
2008,06,28,14,31,25.90
2008,06,28,14,32,25.90
2008,06,28,14,33,25.90
2008,06,28,14,34,26.00
2008,06,28,14,35,26.00
2008,06,28,14,36,26.00
2008,06,28,14,37,26.00
2008,06,28,14,38,26.10
2008,06,28,14,39,26.10
2008,06,28,14,40,26.10
2008,06,28,14,41,26.00
2008,06,28,14,42,26.10
2008,06,28,14,43,26.10
2008,06,28,14,44,26.10
2008,06,28,14,45,26.10
2008,06,28,14,46,26.00
2008,06,28,14,47,26.00
2008,06,28,14,48,25.90
2008,06,28,14,49,25.90
2008,06,28,14,50,25.90
2008,06,28,14,51,25.90
2008,06,28,14,52,25.90
2008,06,28,14,53,25.80
2008,06,28,14,54,25.90
2008,06,28,14,55,26.00
2008,06,28,14,56,26.00
2008,06,28,14,57,26.10
2008,06,28,14,58,26.10
2008,06,28,14,59,26.20
2008,06,28,15,00,26.30
2008,06,28,15,01,26.30
2008,06,28,15,02,26.30
2008,06,28,15,03,26.30
2008,06,28,15,04,26.20
2008,06,28,15,05,26.20
2008,06,28,15,06,26.20
2008,06,28,15,07,26.20
2008,06,28,15,08,26.30
2008,06,28,15,09,26.30
2008,06,28,15,10,26.30
2008,06,28,15,11,26.30
2008,06,28,15,12,26.30
2008,06,28,15,13,26.30
2008,06,28,15,14,26.40
2008,06,28,15,15,26.30
2008,06,28,15,16,26.30
2008,06,28,15,17,26.30
2008,06,28,15,18,26.30
2008,06,28,15,19,26.40
2008,06,28,15,20,26.40
2008,06,28,15,21,26.40
2008,06,28,15,22,26.40
2008,06,28,15,23,26.40
2008,06,28,15,24,26.60
2008,06,28,15,25,26.50
2008,06,28,15,26,26.40
2008,06,28,15,27,26.30
2008,06,28,15,28,26.30
2008,06,28,15,29,26.30
2008,06,28,15,30,26.20
2008,06,28,15,31,26.30
2008,06,28,15,32,26.30
2008,06,28,15,33,26.30
2008,06,28,15,34,26.20
2008,06,28,15,35,26.20
2008,06,28,15,36,26.30
2008,06,28,15,37,26.30
2008,06,28,15,38,26.30
2008,06,28,15,39,26.40
2008,06,28,15,40,26.40
2008,06,28,15,41,26.60
2008,06,28,15,42,26.60
2008,06,28,15,43,26.70
2008,06,28,15,44,26.80
2008,06,28,15,45,26.90
2008,06,28,15,46,26.90
2008,06,28,15,47,27.00
2008,06,28,15,48,27.10
2008,06,28,15,49,27.10
2008,06,28,15,50,27.20
2008,06,28,15,51,27.20
2008,06,28,15,52,27.20
2008,06,28,15,53,27.20
2008,06,28,15,54,27.20
2008,06,28,15,55,27.20
2008,06,28,15,56,27.10
2008,06,28,15,57,27.00
2008,06,28,15,58,26.90
2008,06,28,15,59,26.90
2008,06,28,16,00,26.90
2008,06,28,16,01,26.80
2008,06,28,16,02,26.80
2008,06,28,16,03,26.70
2008,06,28,16,04,26.70
2008,06,28,16,05,26.70
2008,06,28,16,06,26.70
2008,06,28,16,07,26.70
2008,06,28,16,08,26.70
2008,06,28,16,09,26.70
2008,06,28,16,10,26.80
2008,06,28,16,11,26.90
2008,06,28,16,12,26.90
2008,06,28,16,13,27.00
2008,06,28,16,14,26.90
2008,06,28,16,15,26.90
2008,06,28,16,16,27.00
2008,06,28,16,17,27.10
2008,06,28,16,18,27.20
2008,06,28,16,19,27.30
2008,06,28,16,20,27.20
2008,06,28,16,21,27.10
2008,06,28,16,22,27.00
2008,06,28,16,23,26.90
2008,06,28,16,24,26.90
2008,06,28,16,25,26.90
2008,06,28,16,26,27.10
2008,06,28,16,27,27.10
2008,06,28,16,28,27.20
2008,06,28,16,29,27.30
2008,06,28,16,30,27.30
2008,06,28,16,31,27.20
2008,06,28,16,32,27.00
2008,06,28,16,33,26.90
2008,06,28,16,34,26.80
2008,06,28,16,35,26.90
2008,06,28,16,36,26.90
2008,06,28,16,37,27.10
2008,06,28,16,38,27.10
2008,06,28,16,39,27.20
2008,06,28,16,40,27.20
2008,06,28,16,41,27.20
2008,06,28,16,42,27.20
2008,06,28,16,43,27.20
2008,06,28,16,44,27.10
2008,06,28,16,45,26.90
2008,06,28,16,46,26.90
2008,06,28,16,47,26.90
2008,06,28,16,48,27.00
2008,06,28,16,49,27.10
2008,06,28,16,50,27.10
2008,06,28,16,51,27.10
2008,06,28,16,52,27.00
2008,06,28,16,53,26.90
2008,06,28,16,54,26.90
2008,06,28,16,55,27.00
2008,06,28,16,56,26.90
2008,06,28,16,57,26.90
2008,06,28,16,58,26.90
2008,06,28,16,59,27.00
2008,06,28,17,00,27.10
2008,06,28,17,01,27.10
2008,06,28,17,02,27.10
2008,06,28,17,03,27.20
2008,06,28,17,04,27.30
2008,06,28,17,05,27.30
2008,06,28,17,06,27.40
2008,06,28,17,07,27.40
2008,06,28,17,08,27.40
2008,06,28,17,09,27.40
2008,06,28,17,10,27.40
2008,06,28,17,11,27.30
2008,06,28,17,12,27.30
2008,06,28,17,13,27.40
2008,06,28,17,14,27.40
2008,06,28,17,15,27.60
2008,06,28,17,16,27.60
2008,06,28,17,17,27.70
2008,06,28,17,18,27.60
2008,06,28,17,19,27.50